Wind_Speed
43 43 43 43 43 44 45 46 46 46 46 46 46 46 47 47 46 46 45 45 46 46 47 47 46 44 44 43 43 43 42 42 41 40 40 40 40 40 40 40 42 41 41
42 42 41 41 41 43 43 44 45 45 45 45 45 45 46 45 45 45 44 44 45 45 44 43 43 43 43 42 42 43 42 40 39 38 38 38 39 40 40 40 40 40 40
40 40 39 40 41 42 42 44 45 44 44 44 44 43 43 44 44 44 43 42 42 41 41 41 41 41 41 41 41 41 41 40 39 38 38 38 39 39 38 38 38 38 39
37 39 38 39 39 41 41 43 44 43 43 43 43 42 41 42 42 42 41 41 40 39 39 40 39 40 40 40 40 40 40 39 38 38 38 37 37 37 37 36 36 37 38
36 36 38 38 38 38 39 40 41 41 42 42 42 42 41 41 41 40 40 39 38 38 38 38 38 38 38 38 38 38 38 38 37 37 36 35 35 35 36 36 35 35 36
33 34 35 36 38 38 39 38 38 38 40 40 41 40 39 39 39 38 39 39 39 38 37 37 37 36 37 36 36 36 36 35 35 34 34 34 34 34 35 35 35 34 33
30 31 33 33 35 35 36 36 35 35 37 38 38 38 38 38 37 36 37 38 38 36 36 35 36 36 35 35 34 34 34 34 34 34 33 33 33 33 34 35 35 33 32
30 31 32 33 34 34 35 34 34 34 34 35 36 37 37 37 38 37 37 36 36 35 35 34 34 35 35 34 33 33 33 33 34 34 34 33 33 32 33 34 32 31 30
29 30 31 32 32 33 33 33 33 33 33 34 34 34 35 36 37 37 37 36 34 33 33 32 33 33 34 35 34 33 33 33 33 33 32 32 32 32 32 32 30 28 27
29 29 29 30 30 31 31 31 31 31 31 32 31 31 32 33 34 34 34 34 32 32 31 32 32 32 33 34 34 33 33 33 31 30 30 30 30 30 31 30 28 28 27
29 28 28 28 28 29 30 30 30 30 30 30 30 31 31 31 31 31 31 31 30 31 32 32 31 31 31 32 33 33 32 31 31 31 30 29 29 29 30 29 27 27 25
29 28 28 28 29 29 29 29 30 30 30 31 31 30 30 30 29 29 30 30 29 30 31 32 32 31 31 31 31 31 31 30 30 30 29 28 28 28 28 26 24 24 24
28 29 29 28 29 28 28 29 29 30 31 30 31 30 29 28 28 28 29 30 30 30 30 31 31 31 30 29 30 30 31 30 29 28 27 27 26 25 25 24 22 22 22
28 28 28 28 28 28 28 28 29 30 30 30 29 29 28 28 28 28 28 29 29 29 29 29 29 30 30 29 29 29 29 29 27 26 25 24 23 23 22 21 20 20 20
28 28 27 28 28 28 28 28 29 29 29 29 28 28 28 28 28 28 28 28 28 28 28 28 28 27 27 27 26 26 26 26 25 24 24 22 21 20 19 19 18 19 18
28 28 27 27 27 28 27 27 28 28 28 28 28 28 27 27 27 27 27 28 27 27 27 26 26 25 25 25 25 24 24 23 23 22 21 20 19 19 18 17 17 17 17
27 27 27 27 27 27 27 27 26 26 26 26 26 27 27 26 26 26 26 25 25 25 25 25 24 23 24 24 23 23 22 21 20 19 18 18 18 17 16 15 15 15 15
26 26 26 25 25 26 25 25 25 25 25 25 25 25 25 24 24 24 25 24 24 24 24 23 23 23 22 22 21 20 19 19 18 18 17 16 16 15 14 13 13 13 13
25 25 24 24 24 24 23 23 23 23 23 23 23 23 23 23 23 23 23 23 23 22 21 20 20 20 20 20 19 18 18 17 17 16 16 15 15 14 13 12 12 12 12
24 23 22 22 21 21 21 20 20 20 20 21 21 21 21 22 22 22 21 21 21 20 20 19 19 19 18 18 17 17 17 16 16 15 15 15 14 13 12 11 11 11 11
21 21 20 20 20 19 19 19 18 18 18 19 19 19 19 19 19 19 18 18 18 18 18 17 17 17 16 17 17 16 16 16 15 15 14 14 13 13 12 11 10 10 10
19 18 18 18 18 17 17 16 16 16 16 17 17 17 17 17 17 16 16 16 16 17 17 17 17 16 16 16 16 16 16 16 15 15 14 14 13 13 12 11 11 10 10
17 17 17 17 16 16 16 16 16 16 16 16 15 15 15 15 15 15 15 15 16 17 17 16 16 15 15 15 15 15 15 15 15 15 15 15 14 13 12 11 10 10 10
16 15 15 15 15 15 15 15 15 15 14 13 13 13 13 14 14 14 14 14 15 15 15 15 15 15 15 15 15 15 15 15 16 16 15 15 14 13 12 10 10 9 9
14 13 13 12 13 13 13 13 13 13 13 13 13 13 12 12 13 13 12 12 13 13 13 13 13 14 14 14 14 14 14 14 15 14 14 14 13 12 11 10 9 9 8
13 12 11 11 11 11 11 11 11 11 12 12 12 12 11 11 10 10 10 10 11 11 11 12 12 12 12 12 12 12 13 13 13 13 13 13 12 11 10 10 9 8 8
Wind_Direction
256 256 257 259 260 259 259 259 261 262 263 264 266 266 267 268 269 270 270 272 272 273 274 274 274 275 277 278 278 279 279 280 281 281 281 282 284 286 286 286 287 288 289
257 256 257 259 261 261 259 260 261 262 263 264 265 267 267 267 268 270 271 273 273 273 273 273 272 273 274 275 276 277 277 278 279 279 281 282 283 286 287 288 288 287 288
259 256 256 259 261 261 261 261 262 264 265 264 264 265 266 268 268 269 272 273 273 274 273 272 272 272 271 272 273 275 275 276 278 278 280 282 284 285 286 288 289 288 289
260 257 258 260 262 261 262 262 262 263 264 264 264 265 266 267 268 268 271 273 274 274 273 272 271 270 269 271 272 273 274 275 277 279 281 282 284 286 286 288 288 289 291
260 258 259 260 260 261 262 263 261 262 263 263 264 265 266 266 267 267 270 271 272 273 272 271 269 269 268 269 271 272 272 274 277 278 280 282 284 286 287 288 288 289 292
262 261 260 260 260 260 261 261 262 262 262 262 263 265 266 267 267 267 268 270 270 271 272 270 268 268 268 269 270 270 271 274 275 278 280 282 284 286 287 287 288 290 292
265 264 263 262 261 261 260 261 263 264 264 263 264 265 265 265 266 265 267 267 268 269 270 270 268 268 269 269 269 269 271 273 275 278 280 282 283 285 286 287 289 291 293
270 271 267 263 262 262 262 264 266 267 267 267 265 265 266 266 266 265 266 268 268 269 270 271 270 268 267 268 269 269 270 272 275 277 279 281 283 284 285 287 288 291 292
276 274 270 267 265 263 263 264 266 267 268 268 267 266 266 266 267 267 267 267 266 268 269 270 271 269 267 267 268 269 271 273 275 277 280 281 283 284 285 287 287 287 289
279 277 275 272 270 267 266 266 267 268 269 268 266 267 268 268 268 267 267 265 264 266 268 268 269 269 269 268 269 270 271 272 273 274 278 279 281 283 285 285 284 285 289
280 278 278 275 273 271 269 268 268 267 268 268 267 268 269 269 269 267 267 266 266 267 267 267 268 270 271 270 269 271 271 272 272 273 275 277 279 282 283 284 283 287 290
279 278 277 275 273 271 269 269 269 269 269 269 268 268 269 268 268 268 268 267 268 269 269 269 269 270 271 270 268 269 270 271 272 273 275 277 280 281 282 282 284 288 291
280 278 276 274 274 271 269 268 268 268 267 267 267 267 267 266 266 267 267 268 269 270 270 270 270 269 271 270 270 269 269 270 271 272 275 278 278 279 280 280 283 287 291
280 278 276 275 275 273 270 268 268 268 266 265 264 265 265 265 266 267 266 267 269 269 269 270 271 271 270 270 270 270 270 271 272 273 275 277 277 277 278 277 279 285 290
280 279 278 277 276 274 271 269 268 268 267 264 263 263 264 265 265 267 268 268 268 268 269 271 271 270 268 269 270 271 270 271 270 272 273 274 275 276 275 274 277 284 289
282 280 278 277 276 274 271 270 268 268 266 264 263 263 264 266 267 269 270 270 269 269 269 269 270 267 266 267 269 269 268 268 268 270 270 271 272 273 273 272 275 280 284
283 281 280 278 275 274 272 270 269 268 267 265 264 263 264 266 268 269 270 270 269 268 267 268 268 265 264 265 267 267 264 263 264 265 267 269 270 272 271 271 273 276 281
283 282 280 277 275 274 272 270 269 267 265 264 264 264 264 265 266 268 269 269 268 267 266 265 265 263 263 262 263 262 258 259 262 262 262 265 267 269 270 272 273 274 280
282 281 278 275 273 274 273 270 268 266 265 263 264 265 264 264 266 267 267 267 265 264 263 263 264 262 261 260 257 255 253 255 259 257 255 258 263 265 269 272 271 272 279
280 278 276 274 274 273 272 271 268 266 264 264 263 263 264 263 264 266 266 264 261 258 258 259 261 261 259 255 252 251 249 250 253 253 252 255 257 260 267 268 268 273 280
279 276 274 273 273 273 271 269 266 265 264 263 260 260 261 262 262 263 263 259 256 254 254 255 257 256 251 251 251 249 248 246 248 248 246 249 252 255 260 263 265 271 279
280 277 276 275 272 271 270 266 264 265 263 261 260 259 259 258 258 261 257 251 249 251 252 254 256 251 248 251 251 248 246 244 244 245 244 248 250 251 254 258 262 268 276
280 277 276 273 269 268 267 266 265 263 261 260 259 258 258 258 258 255 254 252 251 251 251 251 251 250 248 250 250 246 244 244 245 246 245 245 244 246 248 250 255 263 270
282 278 274 269 265 264 263 263 263 260 258 256 257 259 258 256 255 255 257 256 255 252 248 247 247 247 246 247 247 246 244 244 245 245 243 240 239 242 245 248 251 255 261
283 280 276 270 265 263 262 260 257 254 252 254 256 256 255 255 257 257 255 254 250 248 245 245 245 244 240 240 245 246 243 242 241 238 235 233 234 237 242 246 249 251 255
285 281 276 272 268 266 261 255 251 249 249 252 253 253 255 257 257 255 255 254 251 247 245 243 242 239 237 239 244 245 242 240 237 231 228 227 228 231 237 242 242 242 245
Height
5618 5621 5624 5626 5628 5631 5633 5635 5637 5638 5639 5640 5641 5641 5642 5643 5643 5644 5645 5645 5646 5646 5645 5645 5645 5644 5644 5643 5642 5641 5640 5638 5637 5637 5636 5635 5633 5631 5628 5626 5624 5621 5618
5607 5609 5612 5615 5617 5619 5621 5623 5625 5626 5627 5628 5629 5630 5630 5631 5632 5632 5633 5633 5633 5633 5633 5633 5633 5633 5633 5632 5631 5630 5629 5628 5627 5627 5626 5625 5623 5621 5619 5616 5614 5612 5609
5595 5598 5601 5604 5606 5608 5610 5611 5613 5614 5615 5616 5616 5618 5619 5619 5620 5621 5621 5621 5621 5621 5621 5621 5621 5621 5621 5621 5620 5619 5619 5618 5618 5617 5616 5615 5613 5611 5610 5607 5604 5602 5598
5585 5588 5590 5593 5595 5597 5598 5599 5600 5602 5603 5604 5604 5606 5607 5607 5608 5609 5609 5609 5610 5610 5609 5609 5609 5609 5610 5610 5610 5609 5609 5608 5608 5607 5606 5605 5604 5602 5600 5598 5595 5592 5589
5576 5578 5580 5582 5584 5585 5586 5588 5589 5590 5591 5592 5594 5595 5595 5596 5596 5597 5598 5598 5599 5599 5598 5598 5598 5598 5598 5599 5599 5599 5599 5599 5598 5598 5597 5596 5595 5593 5591 5589 5586 5583 5580
5567 5569 5570 5572 5573 5575 5576 5577 5578 5579 5580 5582 5583 5583 5584 5584 5585 5586 5587 5587 5588 5588 5588 5588 5588 5588 5588 5588 5589 5589 5589 5589 5589 5588 5588 5587 5586 5584 5582 5579 5577 5575 5573
5559 5560 5561 5561 5563 5564 5565 5566 5567 5568 5570 5571 5571 5572 5573 5573 5574 5575 5576 5577 5577 5577 5578 5578 5578 5578 5578 5579 5579 5579 5580 5580 5580 5579 5578 5578 5577 5576 5573 5571 5568 5565 5563
5550 5551 5551 5552 5553 5554 5555 5556 5557 5558 5559 5560 5561 5561 5562 5563 5564 5565 5565 5566 5566 5567 5568 5568 5568 5568 5569 5569 5570 5570 5570 5571 5570 5570 5569 5568 5567 5566 5564 5563 5560 5558 5555
5542 5541 5542 5542 5543 5544 5545 5547 5548 5548 5549 5550 5551 5552 5552 5553 5554 5555 5555 5555 5556 5557 5558 5558 5558 5559 5560 5560 5561 5561 5561 5561 5561 5560 5560 5559 5558 5557 5555 5554 5552 5550 5548
5534 5533 5533 5533 5534 5535 5536 5537 5537 5538 5540 5541 5542 5543 5543 5544 5544 5545 5545 5546 5546 5548 5548 5549 5549 5550 5550 5550 5551 5551 5552 5552 5552 5551 5551 5550 5549 5548 5547 5546 5544 5543 5541
5526 5526 5525 5525 5525 5526 5527 5528 5528 5530 5531 5532 5533 5534 5534 5535 5535 5535 5536 5536 5537 5539 5539 5540 5540 5540 5541 5541 5541 5542 5543 5543 5543 5542 5542 5542 5541 5540 5539 5538 5537 5536 5534
5518 5518 5517 5517 5517 5517 5518 5519 5520 5521 5522 5523 5524 5525 5525 5525 5526 5526 5527 5528 5529 5530 5530 5530 5531 5531 5531 5531 5532 5533 5533 5533 5533 5534 5533 5533 5533 5532 5532 5530 5529 5529 5528
5510 5509 5509 5508 5508 5509 5509 5510 5511 5512 5513 5514 5515 5516 5516 5517 5517 5518 5519 5519 5520 5521 5521 5521 5522 5522 5522 5522 5522 5523 5523 5524 5524 5525 5525 5525 5525 5525 5524 5524 5523 5523 5522
5502 5501 5500 5500 5500 5500 5500 5501 5502 5503 5504 5505 5506 5507 5508 5508 5509 5509 5510 5511 5511 5511 5512 5512 5512 5513 5513 5513 5514 5514 5515 5516 5516 5517 5518 5518 5518 5518 5518 5518 5518 5517 5517
5493 5492 5491 5491 5491 5491 5491 5492 5493 5494 5495 5496 5497 5498 5499 5500 5501 5501 5501 5502 5502 5502 5503 5503 5503 5504 5504 5505 5506 5507 5507 5508 5509 5510 5511 5511 5512 5512 5512 5512 5512 5512 5512
5483 5483 5483 5482 5482 5482 5483 5484 5484 5485 5486 5487 5488 5489 5490 5491 5492 5493 5493 5493 5493 5494 5494 5495 5495 5496 5497 5498 5499 5500 5500 5501 5502 5503 5504 5505 5506 5507 5507 5507 5507 5507 5507
5475 5474 5474 5473 5474 5474 5474 5475 5476 5477 5477 5479 5480 5481 5482 5483 5484 5484 5484 5485 5485 5485 5486 5487 5488 5489 5490 5491 5492 5493 5494 5495 5496 5498 5499 5500 5501 5501 5501 5501 5502 5502 5502
5467 5466 5465 5465 5465 5466 5466 5467 5467 5468 5470 5471 5472 5472 5473 5474 5476 5476 5477 5477 5478 5478 5479 5480 5481 5482 5483 5484 5485 5486 5488 5489 5491 5493 5494 5495 5496 5496 5497 5497 5498 5498 5498
5460 5459 5458 5458 5458 5458 5458 5459 5459 5460 5462 5463 5464 5465 5466 5467 5468 5469 5469 5470 5471 5472 5472 5473 5474 5476 5477 5478 5479 5481 5482 5484 5486 5488 5489 5491 5492 5492 5493 5493 5494 5494 5494
5452 5452 5451 5451 5451 5451 5451 5452 5452 5453 5455 5456 5457 5458 5459 5460 5461 5462 5463 5463 5464 5465 5466 5467 5469 5470 5471 5472 5474 5476 5477 5479 5481 5483 5485 5486 5487 5488 5489 5490 5490 5491 5491
5445 5445 5445 5445 5445 5445 5445 5446 5446 5447 5448 5449 5451 5452 5453 5454 5455 5455 5456 5457 5458 5459 5460 5462 5463 5465 5466 5467 5469 5471 5473 5474 5476 5478 5480 5482 5483 5484 5485 5486 5487 5487 5487
5439 5439 5439 5439 5439 5439 5439 5440 5441 5441 5442 5444 5445 5446 5446 5447 5448 5449 5450 5451 5452 5454 5455 5456 5458 5459 5461 5463 5464 5466 5468 5469 5471 5473 5475 5477 5479 5480 5481 5482 5483 5483 5484
5434 5433 5433 5433 5433 5434 5435 5435 5436 5436 5437 5438 5439 5440 5441 5442 5443 5444 5445 5446 5447 5448 5450 5451 5453 5455 5456 5458 5460 5461 5463 5465 5467 5468 5470 5472 5474 5475 5477 5478 5479 5480 5480
5429 5428 5428 5428 5428 5429 5430 5430 5431 5432 5433 5434 5435 5436 5437 5438 5439 5440 5441 5441 5442 5443 5445 5447 5448 5450 5451 5453 5455 5457 5458 5460 5462 5464 5466 5468 5470 5471 5473 5474 5475 5476 5477
5424 5424 5424 5424 5424 5425 5425 5426 5427 5428 5429 5430 5431 5432 5433 5434 5434 5435 5436 5437 5438 5439 5441 5442 5444 5445 5447 5449 5450 5452 5454 5455 5457 5459 5461 5463 5465 5467 5469 5470 5472 5473 5474
5421 5420 5420 5420 5420 5421 5421 5422 5423 5424 5425 5426 5427 5428 5429 5430 5431 5431 5432 5433 5434 5435 5437 5438 5440 5441 5443 5445 5446 5448 5449 5451 5453 5455 5457 5459 5462 5464 5465 5467 5468 5470 5471